Regional Weather Roundup
Issued by NWS Newport/Morehead, NC

Current Version | Previous Version | Text Only | Print | Product List | Glossary Off
Versions: 1 2 3 4 5 6 7 8 9 10 11 12 13 14 15 16 17 18 19 20 21 22 23 24 25 26 27 28 29 30 31 32 33 34 35 36 37 38 39 40 41 42 43 44 45 46 47 48 49 50
000 ASUS42 KMHX 022013 RWRMHX WEATHER ROUNDUP FOR EASTERN NORTH CAROLINA NATIONAL WEATHER SERVICE NEWPORT/MOREHEAD CITY NC 400 PM EDT THU JUL 02 2015 NOTE: "FAIR" INDICATES FEW OR NO CLOUDS BELOW 12,000 FEET WITH NO SIGNIFICANT WEATHER AND/OR OBSTRUCTIONS TO VISIBILITY NCZ015>017-031-032-045>047-102-103-022100- NORTH COAST CITY SKY/WX TMP DP RH WIND PRES REMARKS EDENTON N/A 87 70 55 SW12 29.86F ELIZABETH CITY CLOUDY 84 71 65 SW14G23 29.86F KITTY HAWK CLOUDY 90 67 46 SW12G20 29.85F MANTEO CLOUDY 88 69 53 SW17 29.87S $$ NCZ045>047-081-094-103-104-022100- CENTRAL COAST CITY SKY/WX TMP DP RH WIND PRES REMARKS FRISCO MOSUNNY 83 75 77 SW16G24 29.92F SWANQUARTER N/A 90 N/A N/A SW14G25 29.85S $$ NCZ095-097-098-100-101-022100- SOUTHERN COAST CITY SKY/WX TMP DP RH WIND PRES REMARKS BEAUFORT MOSUNNY 83 75 77 MISG 29.92F CEDAR ISLAND N/A 90 N/A N/A SW6G24 29.94F JACKSONVILLE MOSUNNY 89 69 51 SW16G25 29.90F PINEY ISLAND PTCLDY N/A N/A N/A S17G26 29.90F WILMINGTON MOSUNNY 88 71 57 SW17G24 29.93F $$ NCZ011>013-027>030-043-044-078>080-089-090>093-098-022100- COASTAL PLAIN CITY SKY/WX TMP DP RH WIND PRES REMARKS AHOSKIE PTSUNNY 81 72 74 NW3 29.86F CLINTON MOSUNNY 89 71 55 SW9G17 29.90F ELIZABETHTOWN MOSUNNY 90 70 52 S12G17 29.91F GOLDSBORO PTSUNNY 88 69 53 SW9G20 29.87F GREENVILLE MOSUNNY 90 66 45 W10G22 29.90F HAVELOCK MOSUNNY 87 70 56 S14G24 29.92F KENANSVILLE PTSUNNY 85 69 60 CALM 29.90F KINSTON MOSUNNY 91 64 40 SW14G23 29.89F NEW BERN MOSUNNY 90 70 51 SW9 29.90F RICHLANDS MOSUNNY 90 70 51 SW12 29.90F ROCKY MOUNT PTSUNNY 87 67 51 SW13G21 29.88F WASHINGTON MOSUNNY 89 69 51 SW12G20 29.88S WHITEVILLE MOSUNNY 89 69 52 SW10G18 29.91F $$ AMZ130-135-150-152-154-156-158-170-250-252-270-ANZ085-086-088-633-658-670-022100- MARINE OBSERVATIONS STATION/POSITION TIME TEMP WIND PRES WAVE SWELL AIR SEA DIR/SP/G HT/PER HT/PER (UTC) (F) (DEG/KT/KT) (MB) (FT/S) (FT/S) CHESAPEAKE LIGHT 2000 77 300/ 26/ 29 1011.0 64 E VA BEACH 1950 79 77 200/ 17/ 21 1010.4 5/ 8 3/ 8 DUCK 1900 85 62 220/ 14/ 17 1010.4 2 E DUCK 1911 71 N/A 2/ 8 OREGON INLET 1900 82 83 190/ 21/ 25 1012.0 13E OREGON INLT 2000 76 N/A 4/ 5 HATTERAS CG 1900 83 79 210/ 10/ 15 1013.0 DIAMOND BUOY 1950 82 83 220/ 21/ 25 1012.8 5/ 4 2/ 8 CAPE LOOKOUT 2000 83 210/ 15/ 21 1013.3 BEAUFORT LAB 1900 83 82 210/ 13/ 17 1013.0 30 SE NEW RVR IN 1908 81 80 230/ 17/ 21 1015.0 27 SE WRIGHTSVLE 1900 81 240/ 17/ 19 N/A 5 SE WRIGHTSVLE 1908 81 80 210/ 17/ 23 1014.1 225 S CAPE HAT 1950 79 80 200/ 12/ 16 1019.3 6/ 6 5/ 6 41 SE CHARLESTON 1950 82 82 210/ 14/ 16 1015.1 4/ 7 2/ 7 $$

USA.gov is the U.S. government's official web portal to all federal, state and local government web resources and services.